Location: Augirein
(42.9320°N, 0.9181°E)
Time: 20:03:58
(UTC+00:00)

SeaSat 1 - Pass Details

Date: 20 June 2021
Orbit: 745 x 746 km, 108.0° (Epoch: 31 July)

Event Time Altitude Azimuth Distance (km) Brightness Sun altitude
Rises 02:30:12 0° 32° (NNE) 3,197 7.6 -14.9°
Reaches altitude 10° 02:32:34 10° 38° (NE) 2,269 6.4 -14.7°
Maximum altitude 02:37:20 47° 112° (ESE) 984 3.2 -14.2°
Enters shadow 02:41:19 14° 183° (S) 1,981 4.2 -13.7°
